Погода в Троице

Россия / Псковская область     56°02′14″N   30°40′03″E
темп.,
°C
ветер,
м/с
пор.,
м/с
влажн.,
%
обл.,
%
осадки,
мм/ч
давл.,
гПа
погр.,
м
21 июня, пн
пн2100:00+20ю249062 0.0 101970
03:00+18ю23948 0.0 101948
06:00+20юв128992 0.0 101982
09:00+25юв346219 0.0 1018511
12:00+28ююв3548100 0.0 10181182
15:00+31ююв343571 0.0 10171762
18:00+27в364698 0.0 1016240
21:00+22юв2107150 0.0 1017196
22 июня, вт
вт2200:00+20юв310765 0.0 1017192
03:00+18юв28925 0.0 1018173
06:00+20юв289258 0.0 1018211
09:00+25ююв4765100 0.0 1017657
12:00+28ююв5846100 0.0 10171248
15:00+30ю583921 0.0 10171571
18:00+29ю48475 0.0 10161588
21:00+23ююв25785 0.0 1016105
23 июня, ср
ср2300:00+21ююв26902 0.0 101797
03:00+19ююв28970 0.0 1018160
06:00+20ююв27925 0.0 1018206
09:00+26ююв36635 0.0 1018578
12:00+30ю47405 0.0 10181529
15:00+32ю57371 0.0 10172106
18:00+31ю46493 0.0 10171874
21:00+25ююв26785 0.0 1017125
24 июня, чт
чт2400:00+22ююв25854 0.0 101881
03:00+20ю27905 0.0 1018124
06:00+21ю26875 0.0 1018153
09:00+27ю34665 0.0 1017495
12:00+31ю354937 0.0 10171585
15:00+33ююз343993 0.0 10162831
18:00+29зсз3555100 0.3 1015804
21:00+18в2497100 11.8 1017101
25 июня, пт
пт2500:00+18вюв279674 0.1 1017201
03:00+17юв1197100 1.4 101630
06:00+19юв159699 1.5 1016166
09:00+23ю248298 1.9 1015308
12:00+29ю355311 0.0 10151317
15:00+32ююз46415 0.0 10142421
18:00+29юз475394 0.0 1011861
21:00+24юз117772 0.0 101211